Sidney, NE

4:15 PM MDT on May 24, 2017 (GMT -0600)
Sidney Municipal

Weather History for KSNY - May, 2013

Change the Weather History Date:

Thursday, May 16, 2013

  Actual Average Record
Temperature  
Mean Temperature 68 °F 58 °F  
Max Temperature 82 °F 72 °F 91 °F (2012)
Min Temperature 53 °F 44 °F 31 °F (2006)
Degree Days  
Heating Degree Days 0 8  
Month to date heating degree days 209 161  
Since 1 July heating degree days 6559 6073  
Cooling Degree Days 3 1  
Month to date cooling degree days 14 7  
Year to date cooling degree days 14 8  
Growing Degree Days 16 (Base 50)    
Moisture  
Dew Point 46 °F    
Average Humidity 48    
Maximum Humidity 67    
Minimum Humidity 28    
Precipitation  
Precipitation 0.03 in 0.09 in 1.86 in (1957)
Month to date precipitation 0.23 1.55  
Year to date precipitation 2.92 5.22  
Sea Level Pressure  
Sea Level Pressure 29.77 in    
Wind  
Wind Speed 9 mph (South)    
Max Wind Speed 37 mph    
Max Gust Speed 45 mph    
Visibility 10 miles    
Events Rain , Thunderstorm    
T = Trace of Precipitation, MM = Missing Value Source: NWS Daily Summary

Daily Weather History Graph

Daily Weather History Graph

Search for Another Location

Airport or City:

Trip Planner

Search our weather history database for the weather conditions in past years. The results will help you decide how hot, cold, wet, or windy it might be!

Date:

Astronomy

May. 16, 2013 Rise Set
Actual Time 5:32 AM MDT 8:04 PM MDT
Civil Twilight 5:01 AM MDT 8:36 PM MDT
Nautical Twilight 4:22 AM MDT 9:15 PM MDT
Astronomical Twilight 3:38 AM MDT 9:59 PM MDT
Moon 11:09 AM MDT (5/16) 12:25 AM MDT (5/16)
Length of Visible Light 15h 34m
Length of Day
14h 31m
Waxing Crescent, 36% of the Moon is Illuminated
May 16
Waxing Crescent
May 17
First Quarter
May 24
Full
May 31
Last Quarter
Jun 8
New

Hourly Weather History & Observations

Time (MDT) Temp. Dew Point Humidity Pressure Visibility Wind Dir Wind Speed Gust Speed Precip Events Conditions
12:53 AM 63.0 °F 39.0 °F 41% 29.79 in 10.0 mi SE 12.7 mph - N/A   Scattered Clouds
1:53 AM 61.0 °F 37.9 °F 42% 29.77 in 10.0 mi ESE 6.9 mph - N/A   Mostly Cloudy
2:53 AM 59.0 °F 39.0 °F 48% 29.76 in 10.0 mi NE 4.6 mph - N/A   Partly Cloudy
3:53 AM 55.9 °F 39.9 °F 55% 29.77 in 10.0 mi NE 4.6 mph - N/A   Overcast
4:53 AM 55.0 °F 44.1 °F 67% 29.74 in 10.0 mi NW 5.8 mph - 0.00 in Rain Light Rain
5:53 AM 55.0 °F 44.1 °F 67% 29.75 in 10.0 mi NNE 5.8 mph - 0.00 in Rain Light Rain
6:53 AM 55.0 °F 48.9 °F 80% 29.76 in 10.0 mi West 3.5 mph - 0.00 in   Overcast
7:53 AM 60.1 °F 46.0 °F 60% 29.77 in 10.0 mi Calm Calm - N/A   Mostly Cloudy
8:53 AM 64.9 °F 45.0 °F 48% 29.76 in 10.0 mi SE 6.9 mph - N/A   Scattered Clouds
9:53 AM 69.1 °F 46.0 °F 44% 29.77 in 10.0 mi SSW 5.8 mph - N/A   Partly Cloudy
10:53 AM 71.1 °F 48.0 °F 44% 29.76 in 10.0 mi SSW 6.9 mph - N/A   Mostly Cloudy
11:21 AM 73.4 °F 48.2 °F 41% 29.88 in 10.0 mi SSW 12.7 mph 18.4 mph N/A Thunderstorm Mostly Cloudy
11:47 AM 75.2 °F 44.6 °F 34% 29.88 in 10.0 mi SW 21.9 mph 27.6 mph N/A Thunderstorm Mostly Cloudy
11:53 AM 75.9 °F 44.1 °F 32% 29.74 in 10.0 mi SW 21.9 mph 27.6 mph N/A Thunderstorm Scattered Clouds
12:23 PM 73.4 °F 44.6 °F 36% 29.87 in 10.0 mi SW 16.1 mph 21.9 mph N/A Thunderstorm Mostly Cloudy
12:45 PM 71.6 °F 46.4 °F 41% 29.88 in 10.0 mi WSW 11.5 mph - N/A   Mostly Cloudy
1:53 PM 75.0 °F 46.0 °F 36% 29.70 in 10.0 mi Variable 5.8 mph - N/A   Clear
2:53 PM 78.1 °F 43.0 °F 29% 29.68 in 10.0 mi Calm Calm - N/A   Clear
4:53 PM 70.0 °F 41.0 °F 35% 29.74 in 10.0 mi NW 18.4 mph 26.5 mph N/A   Mostly Cloudy
5:34 PM 62.6 °F 48.2 °F 59% 29.80 in 5.0 mi SSE 15.0 mph 25.3 mph 0.03 in Rain Light Rain
5:53 PM 63.0 °F 48.9 °F 60% 29.69 in 10.0 mi SSE 11.5 mph - 0.03 in   Mostly Cloudy
6:53 PM 69.1 °F 53.1 °F 57% 29.69 in 10.0 mi Calm Calm - N/A   Clear
7:53 PM 63.0 °F 51.1 °F 65% 29.70 in 10.0 mi South 6.9 mph - N/A   Clear
8:53 PM 64.0 °F 48.9 °F 58% 29.75 in 10.0 mi WNW 17.3 mph 24.2 mph N/A   Mostly Cloudy
9:53 PM 66.0 °F 46.9 °F 50% 29.76 in 10.0 mi NE 12.7 mph 17.3 mph 0.00 in Rain Light Rain
10:53 PM 62.1 °F 48.9 °F 62% 29.75 in 10.0 mi SE 13.8 mph - 0.00 in   Mostly Cloudy
11:53 PM 60.1 °F 48.0 °F 64% 29.75 in 10.0 mi South 10.4 mph - N/A   Clear